This is the latest recevied weather packets stored in our database for station/object EA7KZ-10. If no packets are shown the sender has not sent any weather packets the latest 10 day(s).
| Time | Temp. | Humidity | Pressure | Rain* | Wind** | Luminosity | Snow |
|---|---|---|---|---|---|---|---|
| 1778249082 | 20.56° C | 43% | 1010.5 hPa | - | - | - | - |
| 1778248482 | 20.56° C | 43% | 1010.6 hPa | - | - | - | - |
| 1778247882 | 20.56° C | 42% | 1010.4 hPa | - | - | - | - |
| 1778246082 | 20.56° C | 45% | 1010.7 hPa | - | - | - | - |
| 1778245482 | 20.56° C | 44% | 1010.6 hPa | - | - | - | - |
| 1778244882 | 20° C | 44% | 1010.7 hPa | - | - | - | - |
| 1778244282 | 20° C | 43% | 1010.7 hPa | - | - | - | - |
| 1778243682 | 20° C | 45% | 1010.7 hPa | - | - | - | - |
| 1778243082 | 20° C | 47% | 1010.8 hPa | - | - | - | - |
| 1778242482 | 20° C | 47% | 1010.9 hPa | - | - | - | - |
| 1778241882 | 20° C | 47% | 1011.2 hPa | - | - | - | - |
| 1778241282 | 20° C | 47% | 1011.3 hPa | - | - | - | - |
| 1778240682 | 20° C | 47% | 1011.3 hPa | - | - | - | - |
| 1778240082 | 20° C | 45% | 1011.5 hPa | - | - | - | - |
| 1778239482 | 20° C | 45% | 1011.7 hPa | - | - | - | - |
| 1778238882 | 20° C | 45% | 1011.8 hPa | - | - | - | - |
| 1778238282 | 20° C | 46% | 1011.9 hPa | - | - | - | - |
| 1778237682 | 20° C | 47% | 1011.9 hPa | - | - | - | - |
| 1778237082 | 20° C | 49% | 1012 hPa | - | - | - | - |
| 1778236482 | 19.44° C | 49% | 1012.2 hPa | - | - | - | - |
| 1778235882 | 19.44° C | 49% | 1012.3 hPa | - | - | - | - |
| 1778235282 | 19.44° C | 51% | 1012.3 hPa | - | - | - | - |
| 1778234082 | 19.44° C | 50% | 1012.1 hPa | - | - | - | - |
| 1778233482 | 19.44° C | 50% | 1011.9 hPa | - | - | - | - |
| 1778232882 | 19.44° C | 49% | 1011.9 hPa | - | - | - | - |
* Rain since midnight (hover to see other rain measurements)
** Current wind speed in m/s (hover to see current wind gust speed)